This is the latest recevied weather packets stored in our database for station/object K5KHP. If no packets are shown the sender has not sent any weather packets the latest 10 day(s).
| Time | Temp. | Humidity | Pressure | Rain* | Wind** | Luminosity | Snow |
|---|---|---|---|---|---|---|---|
| 1777591149 | 20° C | 67% | 1010.1 hPa | 0 mm | - | 350 W/m² | - |
| 1777590843 | 20° C | 68% | 1010.1 hPa | 0 mm | - | 370 W/m² | - |
| 1777590541 | 20° C | 67% | 1010.3 hPa | 0 mm | - | 364 W/m² | - |
| 1777590236 | 20° C | 66% | 1010.3 hPa | 0 mm | - | 378 W/m² | - |
| 1777589934 | 20° C | 67% | 1010.2 hPa | 0 mm | - | 387 W/m² | - |
| 1777589630 | 20° C | 66% | 1010.2 hPa | 0 mm | - | 381 W/m² | - |
| 1777589327 | 20° C | 65% | 1010.2 hPa | 0 mm | - | 395 W/m² | - |
| 1777589025 | 20° C | 69% | 1010.3 hPa | 0 mm | - | 405 W/m² | - |
| 1777588721 | 20° C | 68% | 1010.3 hPa | 0 mm | - | 426 W/m² | - |
| 1777588416 | 20.56° C | 68% | 1010.5 hPa | 0 mm | - | 452 W/m² | - |
| 1777588112 | 20° C | 70% | 1010.5 hPa | 0 mm | - | 486 W/m² | - |
| 1777587808 | 20.56° C | 68% | 1010.7 hPa | 0 mm | - | 495 W/m² | - |
| 1777587507 | 20.56° C | 68% | 1010.6 hPa | 0 mm | - | 498 W/m² | - |
| 1777587204 | 20.56° C | 67% | 1010.8 hPa | 0 mm | - | 509 W/m² | - |
| 1777586899 | 20° C | 70% | 1010.6 hPa | 0 mm | - | 529 W/m² | - |
| 1777586596 | 20° C | 68% | 1010.7 hPa | 0 mm | - | 543 W/m² | - |
| 1777586291 | 20.56° C | 67% | 1010.9 hPa | 0 mm | - | 557 W/m² | - |
| 1777585989 | 20° C | 67% | 1010.9 hPa | 0 mm | - | 571 W/m² | - |
| 1777585684 | 20° C | 67% | 1011 hPa | 0 mm | - | 580 W/m² | - |
| 1777585379 | 20° C | 67% | 1011 hPa | 0 mm | - | 559 W/m² | - |
| 1777585074 | 20.56° C | 66% | 1011 hPa | 0 mm | - | 580 W/m² | - |
| 1777584770 | 20.56° C | 66% | 1010.9 hPa | 0 mm | - | 596 W/m² | - |
| 1777584468 | 20.56° C | 65% | 1011 hPa | 0 mm | - | 614 W/m² | - |
| 1777584165 | 20.56° C | 66% | 1010.9 hPa | 0 mm | - | 624 W/m² | - |
| 1777583864 | 20.56° C | 67% | 1011 hPa | 0 mm | - | 615 W/m² | - |
* Rain latest hour (hover to see other rain measurements)
** Current wind speed in m/s (hover to see current wind gust speed)